Date,TemperatureHighF,TemperatureAvgF,TemperatureLowF,DewpointHighF,DewpointAvgF,DewpointLowF,HumidityHigh,HumidityAvg,HumidityLow,PressureMaxIn,PressureMinIn,WindSpeedMaxMPH,WindSpeedAvgMPH,GustSpeedMaxMPH,PrecipitationSumIn
2013-1-1,52.4,40.1,29.9,33.9,28.3,24.1,82,65,40,30.21,30.06,4,1,6,0.00
2013-1-2,60.3,44.1,30.4,34.5,27.5,24.0,81,56,25,30.09,29.95,7,1,8,0.00
2013-1-3,59.9,45.7,34.6,30.9,28.5,26.3,73,53,32,30.15,29.98,13,4,20,0.00
2013-1-4,56.7,47.4,38.5,30.9,27.7,25.3,60,47,33,30.25,30.14,13,4,16,0.00
2013-1-5,60.5,43.7,31.0,33.2,26.2,22.9,75,53,27,30.27,30.17,5,1,6,0.00
2013-1-6,65.2,46.2,31.5,30.4,24.5,21.6,70,47,21,30.17,29.93,5,1,7,0.00
2013-1-7,56.0,43.2,31.3,31.4,27.1,22.1,71,54,38,29.94,29.81,6,1,9,0.00
2013-1-8,57.8,43.3,31.3,33.4,28.3,23.3,74,57,36,30.09,29.90,4,1,6,0.00
2013-1-9,70.2,49.0,31.3,33.6,21.9,14.2,72,42,12,30.17,30.02,12,2,15,0.00
2013-1-10,65.3,55.5,39.1,35.1,26.5,20.4,52,34,23,30.04,29.80,12,2,17,0.00
2013-1-11,54.7,41.9,31.7,36.5,25.1,15.6,77,53,31,30.06,29.86,12,2,19,0.03
2013-1-12,47.9,35.1,24.7,22.0,15.4,9.7,69,47,23,30.08,29.95,9,1,10,0.00
2013-1-13,47.5,33.8,22.5,21.0,13.1,9.8,65,45,22,30.09,29.96,6,1,9,0.00
2013-1-14,44.6,32.6,21.1,17.9,11.1,5.8,64,43,24,30.16,30.01,10,2,11,0.00
2013-1-15,45.4,31.5,18.9,13.1,7.9,5.2,59,39,21,30.29,30.16,6,1,6,0.00
2013-1-16,56.2,41.0,26.6,13.7,10.3,6.6,45,30,17,30.29,30.18,5,1,9,0.00
2013-1-17,67.9,52.5,32.8,20.1,16.1,13.1,47,26,13,30.20,30.10,15,4,15,0.00
2013-1-18,71.6,56.2,42.8,25.0,19.5,16.5,39,25,13,30.20,30.07,14,2,14,0.00
2013-1-19,72.5,51.1,33.3,29.1,23.2,18.5,55,36,17,30.19,30.08,5,1,6,0.00
2013-1-20,74.2,53.0,36.9,40.5,27.7,22.1,58,40,25,30.16,30.00,5,1,5,0.00
2013-1-21,76.3,55.6,39.6,38.2,31.2,26.6,61,42,24,30.10,29.99,5,1,7,0.00
2013-1-22,77.4,56.4,40.0,39.4,31.7,27.5,63,42,20,30.18,30.06,4,1,5,0.00
2013-1-23,77.9,57.5,40.5,37.2,31.5,26.4,59,40,21,30.19,30.09,3,1,6,0.00
2013-1-24,63.5,57.5,51.8,50.0,41.9,30.2,72,56,43,30.22,30.15,4,0,5,0.03
2013-1-25,76.0,62.6,49.9,51.0,47.3,42.8,78,59,37,30.18,29.99,3,0,4,0.00
2013-1-26,68.4,61.0,54.5,57.2,51.4,47.7,83,71,49,30.00,29.92,9,1,12,0.61
2013-1-27,67.0,58.4,49.5,53.0,48.6,44.6,87,71,52,30.02,29.93,7,1,7,0.00
2013-1-28,57.1,52.9,46.6,48.1,42.1,31.6,78,67,51,29.99,29.92,12,3,17,0.07
2013-1-29,52.2,45.5,38.9,35.1,28.9,22.6,71,54,32,30.17,29.99,12,3,14,0.00
2013-1-30,57.4,44.1,31.9,32.2,26.8,24.0,74,53,28,30.29,30.15,6,1,8,0.00
2013-1-31,63.0,46.3,33.5,34.7,30.6,25.0,73,56,34,30.22,30.08,5,1,7,0.00
2013-2-1,69.5,49.7,33.3,37.2,30.9,25.8,76,53,25,30.21,30.10,5,1,6,0.00
2013-2-2,73.3,53.1,35.6,36.7,32.3,27.2,72,49,21,30.24,30.09,4,1,6,0.00
2013-2-3,69.1,58.3,49.7,39.8,37.1,34.3,64,47,29,30.13,29.96,5,1,6,0.00
2013-2-4,69.5,56.6,46.1,43.3,39.1,36.5,71,53,35,30.04,29.94,5,1,6,0.00
2013-2-5,71.8,56.0,41.6,45.6,39.3,33.6,77,56,33,30.03,29.91,7,1,8,0.00
2013-2-6,69.8,56.0,44.3,45.3,38.7,34.9,75,55,33,30.04,29.92,8,1,9,0.00
2013-2-7,68.0,53.5,40.3,42.9,34.9,29.0,74,52,30,30.12,29.96,8,1,8,0.00
2013-2-8,68.4,54.8,41.0,36.6,28.8,22.2,68,41,18,29.96,29.80,11,2,12,0.00
2013-2-9,54.2,46.4,37.8,38.1,30.1,24.7,80,55,34,30.02,29.81,10,2,13,0.07
2013-2-10,56.3,42.4,29.5,31.3,25.1,22.5,78,54,28,30.03,29.91,7,1,7,0.00
2013-2-11,53.6,39.1,29.0,35.5,29.4,21.4,82,69,41,30.13,29.95,10,1,10,0.19
2013-2-12,51.8,41.9,32.2,36.6,31.5,27.1,85,68,46,30.24,30.12,6,1,7,0.02
2013-2-13,59.2,47.2,31.3,32.5,27.7,22.9,79,50,25,30.18,30.05,5,1,7,0.00
2013-2-14,64.1,46.7,30.6,33.3,28.3,23.9,79,53,27,30.13,30.01,7,1,7,0.00
2013-2-15,72.4,52.6,37.1,37.5,26.6,16.8,76,44,13,30.22,30.11,11,2,14,0.00
2013-2-16,74.2,60.8,40.7,24.0,16.6,11.7,48,20,8,30.22,30.00,14,5,17,0.00
2013-2-17,72.7,54.5,36.0,25.7,18.5,12.2,51,28,9,30.00,29.85,11,2,11,0.00
2013-2-18,70.2,52.3,35.1,29.4,21.9,18.6,56,34,15,30.06,29.92,6,1,7,0.00
2013-2-19,70.4,55.1,39.4,30.8,22.3,14.6,55,32,13,29.94,29.73,12,3,13,0.00
2013-2-20,53.8,43.7,35.5,37.3,32.5,29.0,82,66,40,29.94,29.72,10,3,18,0.22
2013-2-21,55.6,44.3,35.3,37.7,33.4,30.3,84,67,45,30.03,29.92,6,1,8,0.27
2013-2-22,55.4,46.1,37.4,39.3,33.0,27.6,81,62,40,30.12,29.97,8,2,9,0.00
2013-2-23,63.9,46.6,31.0,33.8,28.7,24.8,81,54,23,30.12,29.84,7,1,7,0.00
2013-2-24,51.1,43.5,34.9,32.9,21.4,8.3,78,46,18,30.06,29.80,16,4,18,0.00
2013-2-25,57.8,43.2,28.6,24.4,20.5,15.6,65,42,23,30.19,30.02,8,1,8,0.00
2013-2-26,62.6,45.2,29.2,29.2,22.1,17.6,71,44,20,30.06,29.94,14,2,14,0.00
2013-2-27,63.2,46.7,30.8,25.4,18.3,8.9,65,37,13,30.19,30.06,11,2,11,0.00
2013-2-28,66.2,47.8,29.7,24.3,18.5,15.5,62,35,15,30.27,30.15,9,1,10,0.00
2013-3-1,72.4,51.5,31.3,25.2,21.5,17.7,61,35,14,30.30,30.17,5,1,7,0.00
2013-3-2,81.2,57.8,36.4,33.4,26.5,19.3,63,36,10,30.30,30.10,4,1,7,0.00
2013-3-3,79.0,61.1,40.7,35.7,26.7,20.3,61,32,12,30.12,29.93,7,2,10,0.00
2013-3-4,72.0,62.8,50.0,33.6,30.0,23.3,46,30,18,30.08,29.89,11,3,18,0.00
2013-3-5,79.6,60.5,41.9,36.2,30.6,25.9,63,37,16,30.11,29.98,8,2,11,0.00
2013-3-6,79.9,64.1,50.4,38.3,32.4,27.9,53,34,16,30.04,29.90,6,1,9,0.00
2013-3-7,79.2,61.4,43.0,36.0,28.4,19.4,59,33,11,29.98,29.88,13,2,15,0.00
2013-3-8,68.9,58.8,46.6,46.5,37.6,29.7,61,46,33,29.97,29.79,19,6,22,0.01
2013-3-9,54.9,49.6,45.2,38.4,35.4,32.5,68,58,49,30.06,29.96,8,2,11,0.02
2013-3-10,66.6,53.5,41.0,39.6,34.0,27.9,74,50,27,30.15,30.03,9,2,11,0.00
2013-3-11,72.4,54.8,36.5,35.6,30.8,26.2,68,43,22,30.14,30.00,6,2,9,0.00
2013-3-12,80.3,59.2,39.1,38.3,32.1,26.8,66,40,15,30.09,29.98,6,1,8,0.00
2013-3-13,52.7,50.3,48.6,32.9,32.2,31.6,52,50,46,30.11,30.09,1,0,2,0.00
2013-3-15,91.4,78.5,60.5,28.9,26.4,23.1,29,16,6,29.96,29.92,10,3,14,0.00
2013-3-16,88.2,68.5,46.8,33.4,25.7,18.3,51,24,5,29.96,29.77,11,2,14,0.00
2013-3-17,82.8,65.6,47.7,28.4,24.3,19.5,40,23,10,29.95,29.83,16,3,18,0.00
2013-3-18,81.2,64.9,48.2,36.5,26.5,20.4,44,26,11,30.02,29.92,8,2,10,0.00
2013-3-19,79.6,64.7,49.9,39.2,29.9,25.1,47,29,16,30.05,29.95,9,2,12,0.00
2013-3-20,82.1,65.8,48.2,37.2,30.5,27.5,49,30,15,30.06,29.90,7,1,10,0.00
2013-3-21,78.1,65.3,51.1,37.5,33.3,29.7,48,32,21,29.90,29.76,7,1,8,0.00
2013-3-22,79.9,71.2,55.8,36.9,32.6,28.1,45,25,17,29.84,29.72,11,4,13,0.00
2013-3-23,74.2,61.9,48.2,35.9,23.4,12.0,49,26,7,29.99,29.84,13,3,15,0.00
2013-3-24,76.1,58.3,39.8,20.3,14.5,9.1,39,20,7,30.02,29.88,10,2,12,0.00
2013-3-25,80.1,61.7,40.5,23.4,17.9,11.8,37,21,10,30.01,29.90,8,2,9,0.00
2013-3-26,86.4,66.5,47.2,27.7,21.3,14.9,38,20,6,29.99,29.85,8,1,9,0.00
2013-3-27,86.2,67.6,46.8,28.9,22.4,15.7,40,21,10,30.02,29.91,10,2,14,0.00
2013-3-28,84.6,68.6,48.6,35.7,24.6,19.5,37,21,10,30.06,29.97,6,2,11,0.00
2013-3-29,85.9,70.0,52.2,36.1,24.6,17.5,34,20,8,30.10,30.00,10,2,10,0.00
2013-3-30,83.9,68.9,54.4,29.6,25.1,20.3,31,21,10,30.08,29.95,8,2,10,0.00
2013-3-31,86.0,67.6,48.2,34.3,28.1,23.1,44,26,12,30.06,29.92,9,2,10,0.00
2013-4-1,82.4,67.5,49.1,38.3,30.0,22.4,45,26,16,30.03,29.90,9,2,10,0.00
2013-4-2,77.8,64.2,46.3,30.6,23.6,17.5,41,24,11,29.98,29.89,13,3,14,0.00
2013-4-3,82.3,65.3,45.4,32.4,27.1,22.0,43,26,13,30.05,29.95,8,2,10,0.00
2013-4-4,89.5,69.9,48.4,35.7,26.9,19.3,45,23,7,30.08,29.93,8,1,8,0.00
2013-4-5,86.9,72.2,54.4,35.5,28.9,25.1,39,22,12,30.00,29.87,10,2,14,0.00
2013-4-6,85.3,70.8,52.9,38.5,30.8,26.6,40,25,13,30.00,29.85,12,2,12,0.00
2013-4-7,85.9,71.1,53.5,39.5,31.8,24.8,47,26,11,29.92,29.78,8,2,14,0.00
2013-4-8,84.1,69.4,50.2,42.1,35.3,28.3,73,31,16,29.80,29.47,20,7,25,0.02
2013-4-9,65.9,57.2,49.3,44.0,34.5,24.0,77,47,23,29.90,29.65,14,3,15,0.09
2013-4-10,69.3,61.0,48.6,31.3,29.2,25.9,49,31,21,30.00,29.90,12,3,15,0.00
2013-4-11,79.4,61.8,42.1,36.3,30.0,23.5,62,34,15,30.00,29.79,10,2,12,0.00
2013-4-12,81.9,65.1,49.3,35.1,28.9,21.9,46,28,12,29.85,29.76,10,2,11,0.00
2013-4-13,85.0,68.5,47.7,34.6,27.9,21.7,49,26,11,29.89,29.76,9,2,10,0.00
2013-4-14,85.3,70.5,51.8,39.0,31.3,24.2,46,26,11,29.84,29.72,16,3,16,0.00
2013-4-15,87.5,74.6,61.0,40.1,32.6,24.2,38,24,11,29.85,29.73,15,4,16,0.00
2013-4-16,86.0,73.2,56.7,39.7,33.6,27.4,43,26,13,29.86,29.74,15,5,16,0.00
2013-4-17,68.2,61.7,51.3,41.7,27.1,13.5,50,29,15,30.01,29.82,13,4,19,0.00
2013-4-18,73.1,57.7,40.5,21.8,15.9,12.2,40,21,10,30.12,30.00,11,2,14,0.00
2013-4-19,81.2,62.5,40.0,22.3,14.9,8.1,39,17,5,30.14,29.95,9,2,11,0.00
2013-4-20,85.1,64.8,41.4,22.5,17.7,8.3,35,18,7,30.00,29.90,9,2,12,0.00
2013-4-21,89.3,69.4,46.1,29.4,23.2,19.4,39,19,6,30.06,29.94,8,2,11,0.00
2013-4-22,91.4,71.8,49.7,32.9,24.2,18.8,39,18,5,30.00,29.82,11,2,11,0.00
2013-4-23,88.9,72.1,51.7,29.6,24.1,19.6,35,18,7,29.92,29.82,10,2,14,0.00
2013-4-24,92.7,75.3,55.8,35.2,27.2,21.5,37,19,6,29.95,29.85,11,2,11,0.00
2013-4-25,86.6,74.3,61.9,36.9,28.4,21.8,34,20,7,30.05,29.90,17,4,17,0.00
2013-4-26,88.6,70.2,49.3,35.7,27.8,23.9,42,23,10,30.12,30.01,8,2,10,0.00
2013-4-27,92.3,73.2,51.5,35.1,27.3,21.1,43,21,6,30.09,29.92,8,2,10,0.00
2013-4-28,95.2,76.2,53.5,34.6,26.5,16.4,40,17,5,29.95,29.80,8,2,11,0.00
2013-4-29,97.9,77.2,54.4,32.2,25.8,19.4,36,15,3,29.89,29.72,10,2,10,0.00
2013-4-30,96.8,78.7,57.2,37.3,26.8,19.6,33,15,5,29.86,29.74,11,2,12,0.00
2013-5-1,91.4,75.5,57.2,34.1,25.8,20.2,30,17,6,30.01,29.86,10,2,12,0.00
2013-5-2,92.0,76.0,56.9,33.4,24.5,17.4,33,15,6,30.12,30.00,14,4,20,0.00
2013-5-3,87.7,74.0,62.1,24.5,21.3,16.1,23,14,6,30.08,29.84,16,6,20,0.00
2013-5-4,94.3,77.2,56.7,33.4,25.3,17.9,32,15,6,29.88,29.74,14,2,15,0.00
2013-5-5,92.5,78.9,62.5,40.5,30.3,23.1,32,18,7,29.98,29.81,15,4,15,0.00
2013-5-6,86.8,74.1,60.8,48.8,41.9,33.0,61,35,16,30.00,29.90,10,2,10,0.03
2013-5-7,86.2,71.7,55.8,44.4,35.7,23.4,45,30,12,30.02,29.88,12,3,15,0.00
2013-5-8,83.5,70.2,56.3,44.7,38.5,34.7,51,33,18,30.05,29.93,9,2,9,0.00
2013-5-9,85.7,72.8,57.6,45.4,35.7,24.0,48,29,11,30.01,29.90,8,2,10,0.00
2013-5-10,89.6,72.9,56.3,42.5,35.9,27.5,43,28,13,30.08,29.94,12,2,15,0.00
2013-5-11,88.4,76.0,60.8,40.7,36.4,28.8,42,26,13,30.12,30.02,16,4,20,0.00
2013-5-12,91.6,79.5,65.9,40.9,34.0,27.4,33,21,10,30.16,29.98,13,4,17,0.00
2013-5-13,95.2,80.7,63.0,39.0,29.5,20.3,32,17,7,30.10,29.94,12,3,14,0.00
2013-5-14,98.8,84.0,68.8,42.4,33.0,23.5,35,18,8,30.02,29.87,7,2,10,0.00
2013-5-15,98.3,83.0,64.8,42.2,34.5,29.9,38,20,10,30.04,29.87,12,3,13,0.00
2013-5-16,99.0,82.7,62.6,41.3,31.9,24.2,32,17,6,29.97,29.81,11,2,13,0.00
2013-5-17,97.2,80.7,61.2,40.5,30.6,24.1,36,18,6,29.95,29.84,11,3,14,0.00
2013-5-18,92.3,78.8,62.1,39.7,30.3,25.2,34,19,8,29.98,29.86,12,2,14,0.00
2013-5-19,91.6,78.4,61.9,45.5,36.9,29.3,43,25,12,29.97,29.82,9,2,13,0.00
2013-5-20,92.2,78.3,60.5,43.7,31.8,21.7,41,21,10,29.94,29.84,18,3,18,0.00
2013-5-21,96.3,78.5,57.1,34.3,26.9,20.6,32,15,5,29.95,29.81,7,2,11,0.00
2013-5-22,100.1,81.0,59.6,36.4,28.8,22.1,32,16,6,29.87,29.73,10,2,14,0.00
2013-5-23,99.7,83.0,63.4,40.7,31.7,27.2,32,17,5,29.91,29.80,10,2,13,0.00
2013-5-24,99.2,83.2,64.3,44.6,33.3,23.8,33,17,3,29.98,29.86,10,2,11,0.00
2013-5-25,99.4,83.0,63.7,42.6,32.5,21.1,34,17,3,29.99,29.88,12,2,13,0.00
2013-5-26,97.4,80.9,60.1,37.5,27.7,15.5,32,14,2,30.00,29.89,9,2,12,0.00
2013-5-27,97.9,80.0,59.2,32.2,26.4,15.9,28,13,2,29.95,29.77,8,2,11,0.00
2013-5-28,96.3,80.2,59.4,34.3,29.2,25.1,31,16,5,29.83,29.67,10,3,14,0.00
2013-5-29,95.2,81.3,62.8,48.6,35.6,30.0,34,21,12,29.82,29.71,10,2,13,0.00
2013-5-30,98.1,84.7,68.6,53.7,43.8,33.3,49,28,11,29.90,29.79,10,2,13,0.00
2013-5-31,99.7,85.9,71.1,58.1,47.4,36.6,51,30,12,29.93,29.82,10,2,12,0.00
2013-6-1,106.0,87.6,64.6,46.3,39.3,32.0,41,21,5,29.90,29.75,7,1,8,0.00
2013-6-2,107.1,89.9,70.2,47.1,38.8,28.3,36,19,7,29.87,29.73,10,2,14,0.00
2013-6-3,104.4,88.1,66.8,44.4,35.5,26.4,35,16,5,29.91,29.80,9,2,11,0.00
2013-6-4,103.5,87.0,70.2,46.1,37.6,30.3,30,19,7,29.93,29.83,11,2,11,0.00
2013-6-5,101.5,85.3,65.2,43.9,33.8,23.8,34,17,5,29.95,29.82,9,2,10,0.00
2013-6-6,104.6,85.9,63.2,38.8,32.9,24.7,31,16,7,29.90,29.76,8,2,14,0.00
2013-6-7,108.4,89.4,67.0,41.6,35.3,27.7,34,15,5,29.87,29.71,8,2,10,0.00
2013-6-8,104.4,89.9,69.1,42.1,33.9,25.9,31,13,5,29.90,29.80,11,3,16,0.00
2013-6-9,103.7,88.6,69.8,45.6,35.2,27.4,35,15,3,29.97,29.84,11,3,17,0.00
2013-6-10,106.9,89.0,67.1,41.2,34.9,28.1,31,15,3,29.97,29.83,10,2,12,0.00
2013-6-11,108.0,90.5,68.8,41.1,34.9,26.0,32,13,3,29.95,29.84,10,3,12,0.00
2013-6-12,108.2,91.6,70.0,40.7,34.8,27.8,30,14,6,30.00,29.85,11,3,12,0.00
2013-6-13,103.5,91.6,76.0,51.0,42.9,34.5,35,20,11,29.99,29.83,14,3,14,0.00
2013-6-14,104.4,91.6,78.1,56.9,50.0,41.9,41,26,15,29.95,29.79,10,3,11,0.00
2013-6-15,103.7,88.2,78.3,67.9,56.0,44.7,58,35,20,29.96,29.84,10,2,14,0.35
2013-6-16,103.5,88.3,71.3,63.9,52.4,33.9,71,36,10,29.99,29.85,7,2,11,0.00
2013-6-17,104.2,87.6,67.5,50.2,39.7,29.6,49,22,7,30.00,29.84,10,2,10,0.00
2013-6-18,106.9,87.4,66.4,46.1,35.5,20.4,40,16,1,29.93,29.80,13,2,13,0.00
2013-6-19,106.2,86.9,64.1,38.4,32.4,24.8,31,14,3,29.87,29.75,10,2,13,0.00
2013-6-20,105.5,87.4,66.1,43.0,33.9,24.4,34,15,3,29.91,29.79,8,2,11,0.00
2013-6-21,105.7,88.6,68.0,43.9,34.7,25.9,33,14,3,29.94,29.81,11,3,13,0.00
2013-6-22,104.4,87.8,67.5,41.3,33.8,23.8,31,15,3,29.94,29.80,14,2,14,0.00
2013-6-23,104.2,87.1,64.6,40.3,34.2,26.6,34,16,3,29.91,29.75,16,3,16,0.00
2013-6-24,103.7,87.1,67.0,43.3,34.4,25.7,31,16,5,29.92,29.82,16,3,16,0.00
2013-6-25,103.3,86.3,66.2,45.7,34.5,24.4,37,17,3,30.00,29.88,9,2,10,0.00
2013-6-26,103.5,86.7,64.8,39.3,31.7,24.3,30,14,3,30.07,29.95,10,2,11,0.00
2013-6-27,105.5,88.7,68.6,44.8,35.5,25.3,28,17,8,30.10,29.93,16,3,16,0.00
2013-6-28,109.8,91.7,71.5,45.9,39.2,34.5,33,18,9,30.00,29.85,6,1,8,0.00
2013-6-29,112.7,96.3,78.1,47.9,42.7,38.4,28,17,9,29.94,29.80,10,2,19,0.00
2013-6-30,110.2,95.1,81.7,60.8,50.7,42.1,48,25,12,30.03,29.74,19,3,19,0.03
2013-7-1,109.3,91.9,78.5,62.5,57.9,51.3,53,34,17,29.97,29.83,9,2,17,0.00
2013-7-2,103.7,90.8,76.3,62.0,57.9,53.7,59,35,22,30.11,29.87,19,4,22,0.02
2013-7-3,105.8,93.2,76.5,58.7,53.1,45.6,46,28,17,29.96,29.76,10,3,12,0.00
2013-7-4,105.3,94.7,83.5,60.7,54.5,47.4,40,27,17,29.92,29.76,10,3,12,0.00
2013-7-5,102.6,86.7,76.7,67.0,62.0,54.0,67,46,27,29.95,29.80,14,2,17,0.02
2013-7-6,106.9,89.6,72.5,66.4,61.5,56.3,70,43,20,29.90,29.74,7,2,10,0.00
2013-7-7,109.8,91.1,77.9,65.1,60.5,53.4,54,38,18,29.90,29.77,10,2,17,0.01
2013-7-8,107.1,95.0,83.5,63.3,58.8,55.5,44,31,20,29.98,29.86,13,3,13,0.00
2013-7-9,100.8,91.4,81.0,69.0,64.4,59.1,62,42,30,30.09,29.91,15,4,15,0.06
2013-7-10,100.6,86.2,76.7,70.2,66.9,64.5,72,54,33,30.07,29.92,8,2,12,0.02
2013-7-11,95.6,84.6,75.2,71.1,68.0,65.5,78,59,41,30.04,29.92,10,2,11,0.13
2013-7-12,94.9,84.5,77.0,69.2,65.9,62.4,75,55,39,30.05,29.89,10,2,11,0.43
2013-7-13,101.7,89.0,76.7,68.4,64.9,60.9,70,47,29,30.01,29.87,10,2,10,0.00
2013-7-14,104.4,92.2,80.8,65.6,62.2,58.2,54,39,26,29.99,29.83,10,2,11,0.00
2013-7-15,104.8,90.9,79.2,66.0,62.5,59.2,58,41,24,29.93,29.78,10,3,17,0.00
2013-7-16,90.7,82.3,77.6,67.8,65.0,63.0,66,56,42,30.07,29.93,14,4,14,0.01
2013-7-17,98.6,88.0,77.9,66.1,59.6,54.4,65,41,24,30.07,29.94,13,4,13,0.03
2013-7-18,97.4,87.2,79.9,62.6,58.2,55.4,49,38,26,30.04,29.89,12,6,16,0.00
2013-7-19,95.0,86.5,80.3,66.5,61.5,59.0,51,44,32,30.00,29.85,10,3,11,0.00
2013-7-20,97.4,82.9,77.2,68.2,66.1,62.6,73,58,38,29.97,29.82,16,2,16,0.01
2013-7-21,96.8,85.3,75.6,70.0,66.4,63.4,75,55,35,30.00,29.90,10,2,12,0.00
2013-7-22,99.4,86.9,75.8,69.0,64.8,60.0,72,50,31,30.05,29.93,10,3,13,0.00
2013-7-23,99.0,88.8,76.3,65.2,61.6,58.3,59,42,29,30.05,29.90,11,3,13,0.00
2013-7-24,98.1,86.8,79.2,70.4,64.5,60.4,73,49,33,30.00,29.90,6,2,11,0.03
2013-7-25,95.8,83.9,78.3,71.3,68.5,66.2,73,61,41,30.06,29.98,6,1,9,0.00
2013-7-26,99.9,82.5,75.6,71.3,68.0,63.6,78,64,33,30.13,30.05,15,1,19,0.31
2013-7-27,97.2,84.0,74.5,71.5,68.1,63.0,80,61,34,30.08,29.91,8,1,12,0.02
2013-7-28,103.0,88.8,74.3,69.2,61.2,51.1,77,45,21,29.95,29.83,0,0,0,0.00
2013-7-29,102.2,88.3,73.1,57.9,53.1,49.4,53,32,18,30.05,29.94,0,0,0,0.00
2013-7-30,105.5,90.4,74.5,61.1,55.3,51.8,55,33,18,30.14,30.00,0,0,0,0.00
2013-7-31,106.6,90.5,80.8,61.9,57.5,53.4,49,34,19,30.10,29.98,0,0,0,0.00
2013-8-1,96.1,88.7,81.7,63.2,60.5,57.5,49,39,31,30.04,29.95,0,0,0,0.00
2013-8-2,96.5,85.8,77.2,66.6,63.4,59.8,58,48,35,30.02,29.95,0,0,0,0.00
2013-8-3,104.0,89.0,73.6,65.1,60.0,55.7,66,41,22,30.05,29.93,0,0,0,0.00
2013-8-4,95.4,87.9,79.0,63.3,59.3,56.4,49,39,28,30.07,29.94,0,0,0,0.00
2013-8-5,98.3,84.3,75.2,65.3,60.0,55.6,71,46,26,30.09,29.93,0,0,0,0.12
2013-8-6,89.6,79.7,73.4,68.5,65.3,59.8,78,63,46,30.08,30.00,0,0,0,0.03
2013-8-7,97.0,83.3,70.2,66.5,59.5,51.3,77,49,24,30.08,29.95,0,0,0,0.00
2013-8-8,101.3,85.4,68.8,59.4,50.1,37.0,61,34,13,30.02,29.89,0,0,0,0.00
2013-8-9,105.3,86.9,65.9,49.6,45.4,42.3,47,26,14,30.00,29.88,0,0,0,0.00
2013-8-10,103.7,88.9,73.6,49.1,43.3,36.2,40,22,14,30.06,29.92,0,0,0,0.00
2013-8-11,103.0,87.5,73.6,61.7,53.9,37.8,47,33,21,30.03,29.88,0,0,0,0.00
2013-8-12,104.6,90.1,72.5,62.6,53.2,36.2,55,32,15,29.98,29.87,0,0,0,0.00
2013-8-13,104.2,88.4,71.3,50.2,41.4,35.9,41,22,11,30.05,29.89,0,0,0,0.00
2013-8-14,106.7,89.9,76.0,60.0,51.5,40.6,42,29,17,30.01,29.87,0,0,0,0.00
2013-8-15,106.4,91.8,77.4,61.9,56.6,52.0,50,33,18,30.03,29.90,0,0,0,0.00
2013-10-20,65.5,57.8,51.8,22.1,20.2,19.0,29,23,18,29.96,29.90,0,0,0,0.00
2013-10-21,82.4,62.0,43.0,30.7,22.5,19.1,42,25,11,30.03,29.94,0,0,0,0.00
2013-10-22,87.7,68.3,45.0,35.5,24.5,19.5,41,22,8,30.07,29.93,0,0,0,2.59
2013-10-23,89.6,72.6,57.4,35.2,29.5,23.4,32,22,12,29.98,29.87,0,0,0,0.00
2013-10-24,89.1,69.0,51.8,38.4,31.5,26.1,45,27,13,30.02,29.88,2,0,2,0.00
2013-10-25,83.7,66.1,49.9,37.1,30.6,26.5,44,29,15,30.09,30.00,9,1,9,0.00
2013-10-26,84.8,64.7,46.6,37.5,30.6,26.4,49,30,13,30.14,30.00,6,1,6,0.00
2013-10-27,87.5,68.6,52.7,40.1,30.7,24.9,49,27,12,30.02,29.81,9,1,10,0.00
2013-10-28,81.4,66.4,51.7,39.9,32.6,26.0,49,30,15,29.94,29.85,14,2,15,0.00
2013-10-29,82.3,67.5,56.0,41.0,36.1,30.4,46,33,16,29.96,29.84,19,3,19,0.00
2013-10-30,69.1,57.4,47.5,42.0,34.7,26.6,61,44,28,30.04,29.92,9,2,11,0.00
2013-10-31,72.4,54.9,38.5,34.8,27.3,20.6,58,38,15,30.12,30.00,4,1,8,0.00
2013-11-1,83.9,57.2,38.9,32.3,25.9,21.1,50,33,13,30.18,30.01,5,1,8,0.00
2013-11-2,90.2,69.2,46.3,51.2,25.2,19.1,69,23,7,30.06,29.87,12,2,12,0.03
2013-11-3,83.3,67.6,54.7,58.8,48.1,41.4,86,54,26,29.98,29.78,10,1,11,0.05
2013-11-4,81.9,65.8,47.9,53.3,45.6,39.8,78,51,28,29.86,29.73,10,2,12,0.00
2013-11-5,74.9,61.5,50.6,51.0,43.1,39.2,74,53,29,30.12,29.86,8,1,8,0.00
2013-11-6,81.4,61.7,41.8,42.2,27.5,12.3,82,36,8,30.23,30.12,11,2,12,0.00
2013-11-7,86.0,72.0,62.1,29.7,20.1,5.7,27,15,10,30.20,30.04,12,5,17,0.00
2013-11-8,85.5,66.1,47.9,39.9,33.5,27.1,50,32,18,30.09,29.80,6,1,7,0.00
2013-11-9,87.1,65.0,46.1,41.5,36.4,31.2,58,37,18,30.11,30.01,6,1,6,0.00
2013-11-10,91.8,66.1,46.1,41.0,36.3,32.0,62,37,16,30.14,30.00,9,1,9,0.00
2013-11-11,90.0,67.9,47.0,44.6,37.4,32.5,60,36,17,30.13,30.01,7,1,10,0.00
2013-11-12,86.0,74.9,57.1,45.4,39.3,31.0,46,29,17,30.21,30.13,14,6,19,0.00
2013-11-13,80.3,69.9,62.6,45.2,43.3,41.0,48,39,29,30.21,30.03,14,6,17,0.00
2013-11-14,82.4,66.2,51.1,48.0,41.3,34.5,63,42,23,30.07,29.91,5,1,7,0.00
2013-11-15,76.7,64.4,51.3,51.2,44.2,34.1,58,49,36,29.91,29.72,10,3,16,0.00
2013-11-16,78.1,67.4,55.3,54.5,45.6,37.3,73,48,24,29.95,29.78,12,2,12,0.00
2013-11-17,76.3,64.7,52.0,50.2,45.0,42.9,71,51,34,30.09,29.95,4,1,6,0.00
2013-11-18,80.5,64.6,49.9,51.8,44.2,39.9,72,50,30,30.12,30.00,5,1,6,0.00
2013-11-19,84.8,61.7,44.1,50.2,40.0,35.8,73,49,22,30.05,29.89,5,1,7,0.00
2013-11-20,77.8,61.9,46.6,47.1,39.9,35.2,65,47,28,29.95,29.85,6,1,11,0.00
2013-11-21,78.7,64.0,49.9,50.6,43.6,38.2,70,49,29,29.98,29.90,6,1,6,0.00
2013-11-22,65.3,56.7,48.6,55.4,49.8,45.5,89,79,56,30.00,29.85,7,2,8,0.45
2013-11-23,53.6,49.9,47.9,48.9,45.9,43.7,91,86,74,30.08,29.98,11,3,11,1.21
2013-11-24,64.8,52.1,44.6,47.1,42.4,38.2,85,70,49,30.17,30.06,10,2,11,0.01
2013-11-25,63.0,48.4,36.7,45.3,39.2,33.1,89,72,47,30.21,30.13,5,1,6,0.00
2013-11-26,68.4,54.6,39.6,39.1,34.7,28.4,87,52,29,30.26,30.16,13,4,16,0.00
2013-11-27,65.3,56.8,46.6,28.6,26.9,25.1,47,32,25,30.16,30.03,13,7,16,0.00
2013-11-28,77.4,57.0,41.4,39.0,33.5,26.6,66,44,24,30.11,30.01,6,1,6,0.00
2013-11-29,78.1,56.7,39.2,49.4,40.5,33.9,83,59,31,30.19,30.08,3,0,5,0.00
2013-11-30,73.1,56.8,44.3,50.0,43.9,39.0,83,64,41,30.19,30.08,2,0,2,0.00
2013-12-1,75.2,57.5,46.8,52.9,45.2,40.7,83,66,40,30.21,30.13,3,0,6,0.00
2013-12-2,75.4,54.3,39.2,50.4,39.6,35.2,88,62,26,30.18,29.96,3,0,4,0.00
2013-12-3,76.1,55.5,40.5,43.0,36.8,27.4,81,55,18,29.96,29.78,3,1,6,0.00
2013-12-4,69.5,57.9,47.3,48.1,42.3,36.4,86,59,31,29.95,29.80,12,4,12,0.04
2013-12-5,52.2,45.8,34.7,44.4,37.2,28.4,89,73,51,30.09,29.91,5,1,6,0.23
2013-12-6,56.3,40.5,28.4,34.8,27.2,23.0,88,63,30,30.18,30.07,3,0,5,0.01
2013-12-7,63.4,43.1,27.7,33.5,27.4,22.7,86,59,24,30.09,29.98,4,1,5,0.00
2013-12-8,59.0,47.5,36.9,40.7,36.2,29.6,77,66,46,30.13,30.02,5,1,6,0.00
2013-12-9,54.4,42.9,30.6,32.9,25.3,21.4,73,51,29,30.26,30.08,4,1,8,0.00
2013-12-10,65.3,44.6,28.4,30.6,25.8,22.2,81,53,22,30.24,30.09,4,1,4,0.00
2013-12-11,77.6,54.2,32.8,43.8,34.0,25.4,78,50,29,30.21,30.11,6,2,10,0.00
2013-12-12,74.9,58.7,43.2,44.3,36.4,31.4,70,44,33,30.20,30.05,6,2,11,0.00
2013-12-13,66.4,45.5,34.0,37.2,32.4,27.8,82,63,32,30.19,30.04,4,1,5,0.00
2013-12-14,64.7,44.6,28.3,33.4,28.9,25.0,88,60,26,30.31,30.19,7,1,11,0.00
2013-12-15,68.7,49.6,31.7,31.8,28.2,23.8,78,47,23,30.29,30.15,11,2,17,0.00
2013-12-16,77.1,50.4,31.0,34.5,30.5,25.9,81,53,18,30.23,30.12,4,1,8,0.00
2013-12-17,82.9,54.5,33.1,36.3,30.2,26.6,80,47,16,30.23,30.06,5,1,12,0.00
2013-12-18,79.1,55.4,39.2,37.9,31.9,28.3,73,46,17,30.07,29.83,3,0,7,0.00
2013-12-19,70.6,53.4,36.8,34.4,29.7,27.2,72,44,20,29.84,29.67,18,3,23,0.00
2013-12-20,54.2,46.8,43.4,42.8,38.4,31.3,89,73,55,29.88,29.61,12,3,22,0.39
2013-12-21,52.5,46.3,39.2,41.5,38.8,34.7,91,76,52,30.10,29.87,12,2,23,0.06
2013-12-22,58.8,43.9,32.5,40.6,35.4,29.8,91,75,43,30.33,30.10,7,1,9,0.00
2013-12-23,66.8,48.3,30.3,36.3,29.1,23.2,91,55,23,30.40,30.28,14,3,21,0.00
2013-12-24,68.9,48.5,33.7,35.4,29.4,24.1,83,52,22,30.27,30.13,8,1,10,0.00
2013-12-25,69.4,49.6,29.7,34.2,29.2,23.8,90,53,24,30.30,30.18,18,5,26,0.00
2013-12-26,65.6,54.6,40.1,28.1,23.6,18.5,52,31,22,30.24,30.10,19,8,30,0.00
2013-12-27,67.8,51.7,33.4,25.8,22.8,18.2,67,36,19,30.24,30.12,21,6,28,0.00
2013-12-28,64.8,47.0,29.9,31.9,26.1,20.5,72,47,24,30.18,29.99,5,0,11,0.00
2013-12-29,66.2,47.3,31.3,32.8,30.2,26.9,84,56,26,30.19,30.00,9,1,14,0.00
2013-12-30,66.9,44.7,28.6,32.3,28.4,24.9,88,59,24,30.33,30.19,8,1,10,0.00
2013-12-31,72.7,47.2,28.4,29.9,26.7,24.2,84,52,17,30.30,30.12,4,0,8,0.00
2014-1-1,70.0,46.3,28.9,30.8,28.0,24.0,83,55,22,30.22,30.10,4,0,10,0.00
2014-1-2,74.9,52.1,32.4,30.9,27.6,25.4,80,46,19,30.22,30.08,12,4,19,0.00